This is the latest recevied weather packets stored in our database for station/object DL4SAV. If no packets are shown the sender has not sent any weather packets the latest 10 day(s).
| Time | Temp. | Humidity | Pressure | Rain* | Wind** | Luminosity | Snow |
|---|---|---|---|---|---|---|---|
| 1787970231 | 13.33° C | 88% | 1016.5 hPa | 0 mm | - | - | - |
| 1787969931 | 13.33° C | 88% | 1016.6 hPa | 0 mm | - | - | - |
| 1787969631 | 13.33° C | 88% | 1016.6 hPa | 0 mm | - | - | - |
| 1787969331 | 13.33° C | 88% | 1016.5 hPa | 0 mm | - | - | - |
| 1787969042 | 13.33° C | 88% | 1016.5 hPa | 0 mm | - | - | - |
| 1787968730 | 13.33° C | 88% | 1016.5 hPa | 0 mm | - | - | - |
| 1787968430 | 13.33° C | 88% | 1016.7 hPa | 0 mm | - | - | - |
| 1787968129 | 13.33° C | 88% | 1016.6 hPa | 0 mm | - | - | - |
| 1787967829 | 13.89° C | 89% | 1016.6 hPa | 0 mm | - | - | - |
| 1787967529 | 13.89° C | 89% | 1016.7 hPa | 0.51 mm | - | - | - |
| 1787967229 | 13.89° C | 89% | 1016.7 hPa | 1.02 mm | - | - | - |
| 1787966928 | 13.89° C | 89% | 1016.7 hPa | 2.03 mm | - | - | - |
| 1787966628 | 13.89° C | 89% | 1016.7 hPa | 2.54 mm | - | - | - |
| 1787966328 | 14.44° C | 89% | 1016.9 hPa | 2.54 mm | - | - | - |
| 1787966027 | 14.44° C | 89% | 1017 hPa | 2.54 mm | - | - | - |
| 1787965727 | 14.44° C | 89% | 1016.9 hPa | 2.54 mm | - | - | - |
| 1787965427 | 14.44° C | 89% | 1016.9 hPa | 2.54 mm | - | - | - |
| 1787965127 | 14.44° C | 89% | 1016.7 hPa | 2.54 mm | - | - | - |
| 1787964826 | 14.44° C | 89% | 1016.8 hPa | 2.54 mm | - | - | - |
| 1787964526 | 14.44° C | 89% | 1017 hPa | 2.54 mm | - | - | - |
| 1787964226 | 14.44° C | 89% | 1017 hPa | 2.54 mm | - | - | - |
| 1787963925 | 14.44° C | 89% | 1017.1 hPa | 2.03 mm | - | - | - |
| 1787963625 | 14.44° C | 89% | 1017.1 hPa | 0.51 mm | - | - | - |
| 1787963325 | 14.44° C | 89% | 1017.2 hPa | 0 mm | - | - | - |
| 1787963025 | 14.44° C | 89% | 1016.9 hPa | 0 mm | - | - | - |
* Rain latest hour (hover to see other rain measurements)
** Current wind speed in m/s (hover to see current wind gust speed)